Location: Observatoire de Paris
(48.8363°N, 2.3365°E)
Time: 05:23:41
(UTC+01:00)

Vanguard 3 - All Passes

Search period start: 06 August 2021 00:00
Search period end: 16 August 2021 00:00
Orbit: 508 x 3261 km, 33.4° (Epoch: 05 August)

Date Brightness Start Highest point End Pass type
(mag) Time Alt. Az. Time Alt. Az. Time Alt. Az.
06 Aug - 01:18:52 10° WSW 01:23:01 11° SW 01:27:04 10° SW visible
06 Aug - 15:10:13 10° SSE 15:15:55 16° SE 15:23:08 10° ESE daylight
06 Aug - 17:16:30 10° SW 17:26:58 37° SSE 17:42:22 10° E daylight
06 Aug - 19:26:57 10° WSW 19:40:25 46° S 19:58:28 10° ESE daylight
06 Aug - 21:39:46 10° W 21:54:50 38° SSW 22:11:44 10° SE visible
06 Aug - 23:56:29 10° W 00:08:11 20° SW 00:19:42 10° S visible
07 Aug - 16:04:08 10° SSW 16:12:26 27° SE 16:24:27 10° E daylight
07 Aug - 18:13:05 10° SW 18:24:41 43° S 18:41:38 10° ESE daylight
07 Aug - 20:24:40 10° WSW 20:38:45 43° SSW 20:56:30 10° SE visible
07 Aug - 22:38:53 10° W 22:52:47 28° SSW 23:07:31 10° SSE visible
08 Aug - 14:53:16 10° SSE 14:58:37 16° SE 15:05:30 10° ESE daylight
08 Aug - 16:59:55 10° SW 17:09:34 36° SSE 17:24:16 10° E daylight
08 Aug - 19:10:17 10° WSW 19:22:48 44° S 19:40:21 10° ESE daylight
08 Aug - 21:22:56 10° W 21:36:59 35° SSW 21:53:32 10° SSE visible
08 Aug - 23:40:03 10° WSW 23:50:15 17° SW 00:00:41 10° S visible
09 Aug - 15:47:32 10° SSW 15:55:10 27° SSE 16:06:28 10° E daylight
09 Aug - 17:56:34 10° WSW 18:07:15 42° S 18:23:28 10° ESE daylight
09 Aug - 20:07:59 10° WSW 20:21:03 40° SSW 20:38:18 10° SE daylight
09 Aug - 22:22:12 10° W 22:34:54 25° SW 22:48:57 10° SSE visible
10 Aug - 14:36:31 10° S 14:41:28 16° SE 14:47:52 10° ESE daylight
10 Aug - 16:43:27 10° SW 16:52:18 36° SSE 17:06:08 10° ESE daylight
10 Aug - 18:53:45 10° WSW 19:05:17 42° S 19:22:06 10° ESE daylight
10 Aug - 21:06:17 10° W 21:19:13 32° SSW 21:35:06 10° SSE visible
10 Aug - 23:24:12 10° WSW 23:32:24 15° SW 23:40:58 10° SSW visible
11 Aug - 15:31:04 10° SSW 15:38:02 26° SSE 15:48:30 10° ESE daylight
11 Aug - 17:40:08 10° WSW 17:49:57 41° S 18:05:14 10° ESE daylight
11 Aug - 19:51:26 10° WSW 20:03:27 37° SSW 20:19:54 10° SE daylight
11 Aug - 22:05:47 10° WSW 22:17:06 22° SW 22:30:00 10° S visible
12 Aug - 14:19:55 10° S 14:24:25 16° SE 14:30:17 10° ESE daylight
12 Aug - 16:27:05 10° SW 16:35:11 35° SSE 16:48:00 10° ESE daylight
12 Aug - 18:37:20 10° WSW 18:47:55 39° S 19:03:44 10° SE daylight
12 Aug - 20:49:50 10° WSW 21:01:33 29° SSW 21:16:24 10° SSE visible
12 Aug - 23:09:37 10° WSW 23:14:39 12° SW 23:19:53 10° SSW visible
13 Aug - 15:14:42 10° SSW 15:21:02 26° SSE 15:30:35 10° ESE daylight
13 Aug - 17:23:49 10° WSW 17:32:46 38° S 17:46:58 10° ESE daylight
13 Aug - 19:35:04 10° WSW 19:45:59 34° SSW 20:01:19 10° SE daylight
13 Aug - 21:49:46 10° WSW 21:59:25 19° SW 22:10:37 10° S visible
14 Aug - 14:03:28 10° S 14:07:30 16° SE 14:12:44 10° ESE daylight
14 Aug - 16:10:50 10° SW 16:18:11 33° SSE 16:29:54 10° ESE daylight
14 Aug - 18:21:03 10° WSW 18:30:39 36° S 18:45:17 10° SE daylight
14 Aug - 20:33:37 10° WSW 20:44:01 25° SSW 20:57:25 10° SSE visible
15 Aug - 14:58:27 10° SSW 15:04:10 25° SSE 15:12:44 10° ESE daylight
15 Aug - 17:07:37 10° WSW 17:15:43 36° S 17:28:40 10° ESE daylight
15 Aug - 19:18:51 10° WSW 19:28:39 30° SSW 19:42:35 10° SSE daylight
15 Aug - 21:34:18 10° WSW 21:41:52 15° SW 21:50:35 10° S visible
